Theta_e
314 312 312 312 313 313 314 314 315 315 315 315 316 317 317 318 320 321 324 330 335 333 331 330 330 334 335 336 340 348 351 353 353 360 363 358 359 352 353 352 350 351 349 344 348
316 315 313 312 312 313 313 314 314 315 315 315 316 316 316 316 319 323 333 332 331 329 331 330 331 330 330 332 338 343 346 349 347 349 361 358 359 359 356 354 354 355 352 352 352
316 315 315 313 313 313 313 314 314 314 314 315 316 316 316 316 322 324 331 332 331 329 331 329 329 330 332 336 340 342 347 345 349 351 357 359 359 356 355 357 353 357 355 353 352
317 316 315 315 313 313 313 313 313 314 314 314 316 316 315 324 325 328 328 327 328 329 330 329 330 332 335 341 339 346 345 347 350 355 357 359 356 359 354 354 351 352 352 352 352
317 316 316 316 314 313 313 314 314 314 314 314 315 316 317 319 321 325 325 327 326 330 330 331 331 332 338 341 340 343 346 349 347 348 351 352 358 359 356 349 350 352 351 352 351
316 316 316 316 315 313 313 314 314 313 313 314 315 315 322 318 322 325 326 324 323 325 329 329 331 331 332 335 339 341 347 347 346 355 352 360 359 356 352 350 352 352 352 351 350
315 316 317 316 317 314 313 314 314 313 313 313 315 317 321 314 321 323 321 321 323 322 324 327 330 331 332 333 333 347 350 349 350 355 358 356 360 359 350 349 352 351 350 349 349
314 315 316 317 317 314 313 314 313 313 313 313 314 319 312 316 317 319 320 322 323 323 324 327 330 330 332 332 333 347 346 353 350 352 355 351 364 358 352 349 350 351 350 349 349
314 315 315 316 317 315 314 314 313 313 313 314 319 317 317 319 322 321 321 319 323 324 325 329 331 331 331 332 331 338 351 347 352 349 347 348 357 356 352 351 350 347 348 349 348
314 315 315 315 317 314 313 314 314 314 319 319 321 317 315 321 322 321 321 323 321 322 323 327 327 330 328 329 336 335 339 346 351 350 346 351 353 356 354 352 351 348 345 346 347
314 314 315 315 317 313 314 317 314 317 320 312 313 313 316 318 320 321 320 320 321 321 324 326 329 332 331 331 332 333 337 340 345 346 348 352 352 357 354 352 350 348 346 342 346
315 314 314 317 317 313 312 314 318 317 316 316 318 316 317 318 319 318 320 319 320 323 327 326 329 329 331 333 334 337 337 337 337 346 347 352 353 353 354 351 349 349 347 343 345
315 315 316 318 315 313 313 314 320 317 316 318 318 319 320 318 320 318 316 317 325 324 328 328 329 330 332 335 337 334 335 334 337 346 340 351 353 352 349 347 345 345 345 344 345
315 315 316 318 314 317 319 320 322 317 318 321 322 320 320 319 320 318 317 319 324 328 327 328 328 331 331 335 335 337 333 333 338 338 338 347 358 345 350 349 348 345 345 345 345
313 314 316 316 314 316 322 322 319 317 326 326 322 322 317 317 319 321 320 324 326 328 328 330 330 329 331 333 334 337 334 331 332 328 326 336 335 339 348 351 349 346 343 345 345
314 315 315 315 314 318 320 322 318 322 330 328 322 320 317 317 319 319 322 323 323 327 325 325 324 327 326 328 332 332 329 325 322 321 326 324 325 326 353 352 349 344 345 344 344
315 316 313 314 316 321 322 317 320 325 324 325 319 316 316 317 318 321 322 323 323 325 324 321 322 322 324 326 324 324 324 327 329 326 328 329 337 331 344 344 347 346 346 344 344
318 318 319 317 319 318 320 319 327 323 323 321 316 315 317 319 318 320 322 321 320 320 318 322 324 323 323 324 325 325 324 327 331 328 328 334 342 343 343 343 344 346 346 345 344
320 320 319 320 317 318 318 323 322 325 326 324 319 318 318 319 321 321 320 319 320 317 321 319 322 323 322 322 321 324 326 323 322 321 328 337 340 341 342 345 346 346 346 346 345
319 319 320 323 319 320 320 323 324 324 323 322 325 320 319 319 318 318 318 321 321 318 318 320 321 321 327 328 331 325 321 324 320 327 330 343 346 341 347 349 347 347 346 345 344
320 321 323 320 321 317 323 323 325 323 322 322 323 322 321 320 317 315 319 321 323 319 317 318 319 322 332 333 333 331 331 321 320 324 335 339 338 338 345 347 348 345 344 345 344
317 327 323 318 316 313 317 320 320 320 320 318 320 320 321 320 318 317 317 318 319 317 318 318 317 320 327 331 332 331 333 326 327 331 331 332 339 343 344 346 346 346 346 349 346
320 323 322 318 318 318 318 321 321 322 321 321 322 321 322 322 320 318 318 320 322 319 326 328 328 330 331 330 330 334 334 330 324 323 331 339 336 341 344 345 346 346 348 343 345
321 333 319 314 313 320 322 322 324 325 324 321 321 322 328 331 326 320 324 330 330 322 341 332 326 328 331 331 330 335 335 333 328 330 331 332 334 342 341 339 339 345 344 339 339
321 331 329 330 325 320 320 322 326 325 326 331 331 335 334 334 333 335 333 331 332 331 329 328 332 331 333 336 335 334 334 334 334 330 334 332 338 337 340 339 338 336 340 341 342
330 329 329 328 327 333 325 328 326 325 334 336 335 336 333 334 333 334 333 333 335 329 329 328 331 331 336 335 335 336 334 334 335 332 335 340 341 336 337 339 342 338 341 345 345
317 324 326 329 331 335 332 327 328 330 335 337 337 333 334 334 331 330 330 328 332 329 327 330 331 331 334 336 332 331 333 334 334 332 338 343 339 338 340 342 342 342 342 345 347
Wind_Speed
13 12 12 11 11 11 11 11 11 12 13 15 16 18 22 24 26 16 5 7 4 6 10 4 11 13 15 6 6 4 3 3 5 6 5 11 5 4 4 9 3 2 7 17 28
14 13 12 12 12 12 11 11 12 12 13 15 16 18 20 24 22 13 16 13 14 13 6 4 5 10 5 6 6 5 4 8 5 6 10 11 9 7 7 12 9 12 18 26 30
15 15 14 12 12 13 12 11 12 12 14 15 15 17 19 18 5 6 7 4 8 7 7 7 6 3 3 1 5 6 6 4 2 5 16 12 6 3 14 8 17 21 19 21 24
16 17 17 15 13 12 12 12 12 12 12 13 13 15 17 6 4 1 9 13 11 8 8 4 4 5 2 3 4 4 4 7 5 8 9 14 8 6 13 6 19 21 24 21 20
17 18 20 18 14 13 12 12 12 12 11 11 11 13 6 3 9 11 15 8 12 8 7 2 5 4 4 4 1 4 3 7 8 8 11 13 9 10 6 14 16 19 20 20 17
18 20 20 21 17 13 12 11 11 12 10 10 9 9 2 5 6 5 6 15 14 8 8 3 4 5 4 4 2 3 5 9 6 8 13 12 7 4 5 17 19 20 20 19 17
19 20 21 22 18 14 12 10 10 10 9 7 7 5 1 14 5 8 19 16 14 13 4 4 2 2 3 4 0 11 10 7 4 5 6 11 4 7 11 16 18 18 15 13 15
19 21 23 23 20 15 11 10 9 8 6 4 3 0 7 7 13 18 16 17 15 8 7 12 4 5 1 2 5 6 5 6 3 7 9 4 5 6 10 16 17 19 16 18 18
20 21 24 24 21 14 10 9 7 4 3 2 1 2 9 11 9 11 13 9 10 9 11 8 3 1 4 4 5 0 8 4 6 7 5 2 3 11 12 15 16 16 18 17 17
21 23 24 25 20 14 8 5 3 2 2 1 2 3 7 3 5 4 8 9 1 5 8 8 5 3 4 5 1 5 6 4 8 14 7 5 8 14 15 14 17 14 13 15 16
21 23 25 25 19 12 5 1 3 2 3 9 5 4 5 9 6 4 2 4 3 6 1 3 5 4 8 5 5 4 1 3 8 7 7 11 9 16 17 14 13 13 11 9 17
23 24 26 24 17 10 4 1 2 2 6 10 10 8 9 6 5 5 4 4 4 5 1 6 3 7 4 5 7 0 1 5 5 8 5 7 11 12 18 19 17 15 10 12 8
23 25 26 21 12 3 2 4 11 8 1 7 6 6 5 9 7 8 10 6 4 5 4 5 8 3 3 4 1 1 2 6 5 6 4 8 6 4 7 7 8 11 8 6 14
24 25 25 17 3 2 4 3 16 13 4 7 4 8 5 6 5 7 11 6 2 9 7 4 5 6 6 6 5 4 6 7 11 8 6 5 4 7 8 11 12 12 9 11 9
27 25 23 10 5 3 3 16 4 2 2 2 4 1 2 8 2 5 6 5 5 5 6 7 2 5 5 8 5 10 1 3 3 5 6 3 3 7 8 10 11 13 9 9 8
28 24 18 5 6 7 12 8 5 5 5 3 5 5 5 2 2 5 4 3 3 4 1 6 3 4 7 9 5 1 3 7 4 3 1 4 7 4 9 24 14 12 12 9 7
29 22 12 7 4 2 12 3 5 3 6 3 4 4 3 4 2 2 3 4 5 3 3 6 6 5 4 4 4 6 6 3 4 4 6 2 3 7 4 7 9 12 8 3 5
26 13 8 14 7 9 3 5 2 4 6 6 3 4 5 4 5 4 3 3 2 5 2 2 6 1 2 6 8 4 7 5 5 3 4 4 3 4 4 4 7 11 10 8 8
14 4 5 4 16 6 5 3 6 5 4 7 3 5 2 4 5 3 6 7 9 8 7 4 5 5 5 6 8 5 2 5 6 3 2 3 4 5 4 6 6 9 7 9 9
9 4 5 2 15 7 5 5 5 4 6 5 3 2 2 3 4 6 7 7 6 10 6 3 2 2 5 3 6 3 5 3 3 2 2 4 4 4 3 5 3 6 11 2 7
4 2 4 15 11 5 3 6 5 6 7 6 3 4 5 5 7 6 8 5 14 7 8 6 4 7 5 3 2 4 3 6 4 4 5 2 4 5 7 5 8 4 4 4 6
3 3 2 17 4 2 3 6 4 5 1 6 4 8 6 4 6 8 12 8 12 10 11 7 5 5 7 8 3 3 4 4 5 2 2 3 2 5 6 5 4 4 2 4 6
2 1 10 6 2 2 5 5 4 4 5 5 6 8 8 6 3 9 8 9 5 8 10 8 3 1 7 6 4 5 1 5 5 3 1 4 4 6 5 6 7 5 3 6 8
2 2 3 3 1 4 2 6 4 4 7 5 7 6 4 3 3 6 8 5 2 11 10 9 4 8 7 6 4 4 1 1 5 4 3 5 3 8 9 8 6 6 4 5 5
2 1 1 2 4 3 4 4 9 6 6 1 5 2 4 3 2 2 2 4 6 5 6 5 5 4 2 4 4 6 6 6 5 5 5 5 5 4 12 12 8 6 5 2 2
2 3 3 2 3 4 3 4 8 7 1 7 3 9 3 4 4 5 5 2 1 7 4 4 2 3 2 2 4 3 5 4 4 2 4 6 4 3 2 9 6 8 11 7 6
5 3 2 3 4 0 3 5 5 9 6 3 5 4 7 5 5 4 5 5 5 5 3 4 5 3 4 3 1 4 3 4 2 4 7 5 7 7 2 6 10 9 9 8 6
Wind_Direction
347 339 328 322 318 315 315 316 316 318 323 325 325 328 330 326 323 319 256 255 251 287 304 271 221 207 188 195 181 136 73 215 207 166 124 139 132 136 100 132 97 211 131 148 143
351 344 331 319 316 312 311 312 314 314 318 322 323 328 331 328 326 291 286 274 274 276 312 297 212 183 190 191 185 139 149 203 193 165 147 161 142 169 133 147 99 91 110 134 141
350 345 338 329 316 309 308 308 308 311 314 319 323 327 331 330 327 254 353 339 306 262 281 290 312 355 5 237 168 172 183 163 128 134 140 142 118 209 145 174 157 145 145 150 154
349 349 343 332 320 313 307 303 302 304 305 316 321 328 329 340 274 308 1 350 336 310 299 314 36 345 336 12 327 87 115 132 169 137 136 142 143 131 168 188 161 156 154 152 168
347 346 346 336 325 311 303 300 299 301 304 313 321 332 341 339 251 276 312 18 358 337 293 2 345 20 13 238 28 95 155 139 143 128 127 136 141 146 173 136 148 145 155 166 176
346 345 344 340 328 312 301 295 296 299 300 310 320 334 357 273 280 284 300 331 329 318 284 145 263 258 256 271 116 128 129 123 106 100 128 124 132 89 99 138 153 157 171 176 178
344 343 341 340 329 315 298 292 292 294 295 303 316 347 329 237 245 280 294 301 305 297 268 253 257 314 286 343 247 125 110 66 72 87 105 104 45 153 158 154 160 169 177 185 188
341 340 340 336 330 317 301 294 289 287 285 285 300 139 249 272 288 276 273 284 292 294 271 305 166 225 256 336 32 81 54 124 244 145 166 74 208 221 173 164 168 181 189 196 195
341 339 340 337 330 321 309 295 292 276 252 248 175 155 265 303 277 264 247 242 299 328 331 315 116 149 37 70 54 47 172 179 162 211 154 131 178 200 184 178 184 185 196 203 207
340 339 338 337 331 325 317 298 285 238 153 142 251 348 272 312 297 285 230 226 326 352 353 25 47 53 41 64 215 214 165 209 175 201 181 195 226 172 192 190 193 199 193 200 202
336 337 337 334 330 334 344 290 26 347 204 203 194 248 290 319 315 271 210 136 89 58 322 351 48 265 258 220 205 173 286 220 209 199 153 194 200 179 190 204 208 203 206 197 207
336 337 336 333 328 324 319 152 183 251 304 232 244 262 268 303 308 286 179 144 123 193 203 15 259 250 274 232 256 53 87 260 246 170 140 163 219 185 187 207 205 206 206 206 178
336 335 334 333 325 329 241 250 338 299 322 291 200 217 199 150 210 263 151 158 159 174 166 162 246 358 250 268 274 321 231 263 193 137 45 111 326 218 193 195 204 210 211 200 185
334 332 333 340 320 329 257 308 331 169 45 274 245 264 160 173 268 217 184 142 183 192 160 221 271 236 292 273 125 324 231 272 141 127 198 135 233 271 188 203 204 204 183 190 185
336 331 329 325 291 219 150 330 127 100 338 178 211 5 125 148 247 220 168 56 175 167 103 248 297 342 296 246 143 232 195 317 155 129 109 219 100 256 140 219 211 207 191 202 175
330 324 326 308 243 250 325 349 127 44 256 324 141 166 124 114 272 318 144 79 151 141 344 247 283 225 239 280 185 4 60 39 56 92 63 198 163 246 201 217 203 198 197 181 160
327 317 295 223 238 58 343 89 43 148 323 201 189 154 136 150 213 279 182 129 152 109 324 329 269 258 190 256 16 77 63 350 358 10 228 291 121 238 23 354 238 194 84 116 169
326 295 271 239 229 285 5 53 146 246 261 297 126 83 160 154 243 188 150 206 63 98 108 136 323 231 155 187 209 174 145 155 210 207 265 6 254 325 74 345 141 121 149 159 190
333 304 262 268 218 243 75 97 214 220 292 353 30 89 299 249 190 131 208 215 188 165 168 156 273 295 172 219 142 191 184 181 108 31 63 280 298 23 62 42 79 143 155 187 210
334 312 259 247 152 131 82 221 239 234 337 356 84 60 229 278 165 159 184 211 217 184 158 211 291 239 315 344 44 124 150 56 16 167 235 297 282 216 218 170 153 162 202 247 357
347 32 340 150 134 54 168 233 275 274 4 357 1 345 230 246 200 183 224 242 193 195 134 142 113 283 40 346 159 30 24 57 119 121 155 184 274 249 211 186 198 194 45 1 278
340 51 146 153 66 50 150 203 231 269 185 257 231 215 228 212 251 214 210 228 177 154 158 195 140 240 213 318 24 100 129 126 127 218 73 138 266 264 187 220 190 221 291 304 296
50 313 164 336 146 247 273 271 238 265 232 228 236 220 244 233 225 203 207 203 199 153 170 179 215 87 352 343 21 52 25 96 97 93 176 132 248 201 168 209 248 205 247 296 304
81 74 346 45 137 154 267 269 259 294 260 220 245 225 231 232 172 273 210 33 45 189 110 109 132 161 181 191 152 127 217 96 126 95 187 218 239 184 187 169 185 196 225 295 316
37 277 173 225 283 258 188 286 289 312 241 36 271 246 246 228 184 228 39 31 29 1 83 142 121 103 56 128 145 167 181 186 184 165 162 223 209 236 174 170 184 158 138 251 262
38 34 343 272 323 332 161 246 210 260 312 327 309 313 26 202 228 149 128 103 38 21 53 13 132 109 119 208 193 182 243 225 241 153 109 130 236 105 129 124 159 159 163 169 234
345 340 94 271 310 11 230 260 253 163 224 215 293 305 16 346 337 4 75 111 122 99 71 57 115 80 179 6 326 24 254 179 183 159 148 143 216 145 167 172 174 178 163 171 158